Location: Prescott
(34.5400°N, 112.4680°W)
Time: 12:52:39
(UTC-07:00)

Amateur Radio Satellites - All Passes

Search period start: 02 December 2016 12:22
Search period end: 03 December 2016 12:22
Location: Prescott, 34.5400°N, 112.4680°W

Satellite Date Start Highest point End Downlink Frequencies (MHz)
Time Altitude Azimuth
DX 1 02 Dec 12:33:47 12:37:57 41° 99° (E) 12:42:05 434.975-435.025
AO-85 02 Dec 12:39:57 12:43:52 89° 70° (ENE) 12:47:44 145.980
Cosmos 2499 02 Dec 12:40:10 12:48:51 78° 83° (E) 12:56:52 435.465 / 435.565
ESTCUBE 1 02 Dec 12:41:22 12:45:19 31° 289° (WNW) 12:49:16 437.505/2401.250
NANOSAT C BR1 02 Dec 12:48:33 12:49:48 11° 268° (W) 12:51:04 145.865
BUGSAT 1 02 Dec 12:48:52 12:52:35 30° 263° (W) 12:56:21 437.445
UKube-1 02 Dec 12:49:13 12:53:24 46° 100° (E) 12:57:33 .
Gurwin Techsat 1B 02 Dec 12:51:20 12:55:39 26° 68° (ENE) 12:59:59 435.225
50 SAT 02 Dec 12:51:34 12:55:03 55° 285° (WNW) 12:58:32 437.505
RS-15 02 Dec 12:54:38 13:00:05 13° 352° (N) 13:05:33 29.354- 29.394
JUGNU 02 Dec 13:01:43 13:04:56 15° 169° (S) 13:08:07 437.505
AISAT 02 Dec 13:05:31 13:09:40 38° 288° (WNW) 13:13:48 437.250
AO-7 02 Dec 13:06:39 13:08:43 11° 50° (NE) 13:10:48 29.400- 29.500
SPROUT 02 Dec 13:10:47 13:14:58 52° 286° (WNW) 13:19:07 437.525
TISAT 1 02 Dec 13:12:40 13:15:52 21° 95° (E) 13:19:04 437.305
PCSat 02 Dec 13:24:28 13:29:20 33° 303° (WNW) 13:34:14 145.827
Oscar 19 02 Dec 13:27:42 13:32:46 67° 258° (WSW) 13:37:54 437.125/150
VELOX 1 02 Dec 13:43:54 13:46:40 16° 293° (WNW) 13:49:25 145.980
CUBEBUG 1 02 Dec 13:45:42 13:46:30 10° 295° (WNW) 13:47:18 437.445
ITAMSAT 1 02 Dec 13:48:32 13:52:17 20° 66° (ENE) 13:56:02 435.822/435.867
GONETS M04 02 Dec 14:04:25 14:11:59 35° 274° (W) 14:19:36
DX 1 02 Dec 14:11:15 14:13:44 15° 293° (WNW) 14:16:14 434.975-435.025
SWISSCUBE 02 Dec 14:19:09 14:23:03 25° 96° (E) 14:26:55 437.505
BEESAT 02 Dec 14:23:40 14:27:33 25° 96° (E) 14:31:25 436.000
UKube-1 02 Dec 14:26:55 14:29:00 13° 294° (WNW) 14:31:05 .
Gurwin Techsat 1B 02 Dec 14:30:39 14:35:24 33° 262° (W) 14:40:11 435.225
SRMSAT 02 Dec 14:34:46 14:35:50 10° 164° (SSE) 14:36:54 437.500
Cosmos 2499 02 Dec 14:35:37 14:40:46 18° 281° (W) 14:45:46 435.465 / 435.565
BEESAT 3 02 Dec 14:38:18 14:41:06 18° 52° (NE) 14:43:53 437.485
TISAT 1 02 Dec 14:47:55 14:51:26 26° 289° (WNW) 14:54:55 437.305
ITUPSAT 1 02 Dec 14:48:00 14:52:34 45° 100° (E) 14:57:06 437.325
JUGNU 02 Dec 14:49:11 14:53:14 19° 179° (S) 14:57:16 437.505
AO-7 02 Dec 14:51:41 14:59:48 62° 68° (ENE) 15:07:57 29.400- 29.500
BEESAT 2 02 Dec 14:59:02 15:01:16 14° 50° (NE) 15:03:29 435.950
AUBIESAT-1 02 Dec 15:00:11 15:04:47 66° 105° (ESE) 15:09:11 437.475
M-CUBED/EXP-1 PRIME 02 Dec 15:08:49 15:13:32 80° 287° (WNW) 15:18:03 437.505
RS-15 02 Dec 15:11:10 15:19:55 21° 30° (NNE) 15:28:31 29.354- 29.394
ITAMSAT 1 02 Dec 15:26:28 15:31:23 42° 260° (W) 15:36:21 435.822/435.867
KKS-1 02 Dec 15:31:02 15:32:01 11° 92° (E) 15:32:59 437.445
SWISSCUBE 02 Dec 15:56:44 16:00:44 28° 290° (WNW) 16:04:44 437.505
BEESAT 02 Dec 16:01:13 16:05:14 28° 290° (WNW) 16:09:14 436.000
O/OREOS (USA 219) 02 Dec 16:02:48 16:06:05 20° 101° (E) 16:09:21 437.305
MOZHAYETS 4 02 Dec 16:05:02 16:09:36 76° 102° (ESE) 16:14:08
BEESAT 3 02 Dec 16:15:12 16:18:47 32° 247° (WSW) 16:22:20 437.485
SRMSAT 02 Dec 16:20:28 16:24:15 17° 174° (S) 16:28:02 437.500
ITUPSAT 1 02 Dec 16:27:06 16:29:59 16° 294° (WNW) 16:32:50 437.325
ISS 02 Dec 16:30:15 16:32:16 15° 128° (SE) 16:34:18 145.825
CUTE-I 02 Dec 16:35:25 16:36:49 11° 62° (ENE) 16:38:14 437.470
BEESAT 2 02 Dec 16:35:25 16:39:18 45° 245° (WSW) 16:43:07 435.950
AUBIESAT-1 02 Dec 16:36:49 16:38:32 12° 301° (WNW) 16:40:14 437.475
JUGNU 02 Dec 16:38:06 16:41:32 16° 189° (S) 16:44:56 437.505
GOMX 1 02 Dec 16:41:19 16:44:20 18° 67° (ENE) 16:47:29 467.674
BRITE-PL 02 Dec 16:43:56 16:47:57 49° 74° (ENE) 16:52:11 437.365/2234.400
AO-7 02 Dec 16:46:29 16:52:56 25° 264° (W) 16:59:27 29.400- 29.500
Cubesat XI-IV 02 Dec 16:57:30 17:01:11 19° 65° (ENE) 17:04:51 437.490
LilacSat-2 02 Dec 17:00:19 17:02:20 14° 69° (ENE) 17:04:21 437.200
KKS-1 02 Dec 17:04:28 17:08:51 56° 286° (WNW) 17:13:13 437.445
NOAA 15 02 Dec 17:08:02 17:12:21 27° 68° (ENE) 17:16:40 137.62
DOVE 4 02 Dec 17:12:02 17:14:59 17° 66° (ENE) 17:18:03 437.250
HORYU 2 02 Dec 17:13:19 17:17:48 82° 257° (WSW) 17:22:19 437.375
STARS 02 Dec 17:21:28 17:25:54 82° 284° (WNW) 17:30:18 437.465
RS-15 02 Dec 17:23:07 17:35:27 66° 57° (ENE) 17:47:16 29.354- 29.394
CUBESAT XI-V 02 Dec 17:33:52 17:38:32 87° 281° (W) 17:43:12 437.345
HO-68 02 Dec 17:38:10 17:40:22 12° 55° (NE) 17:42:33 435.675
O/OREOS (USA 219) 02 Dec 17:41:08 17:45:13 32° 295° (WNW) 17:49:18 437.305
NOAA 18 02 Dec 17:47:00 17:52:03 38° 70° (ENE) 17:57:08 137.9125
ISS 02 Dec 18:05:25 18:08:31 38° 322° (NW) 18:11:38 145.825
Cosmos 2491 02 Dec 18:06:47 18:14:38 36° 75° (ENE) 18:22:26 435.465 / 435.565
SRMSAT 02 Dec 18:08:47 18:12:43 18° 184° (S) 18:16:39 437.500
CUTE-I 02 Dec 18:10:43 18:16:06 83° 256° (WSW) 18:21:30 437.470
GOMX 1 02 Dec 18:18:06 18:22:05 34° 264° (W) 18:26:20 467.674
BRITE-PL 02 Dec 18:26:14 18:26:48 10° 270° (W) 18:27:24 437.365/2234.400
AIST 2 02 Dec 18:27:41 18:31:53 61° 60° (ENE) 18:36:02 435.215
LilacSat-2 02 Dec 18:32:47 18:36:17 33° 262° (W) 18:39:49 437.200
YUBILEINY 02 Dec 18:32:51 18:39:18 24° 83° (E) 18:45:47 435.215
Cubesat XI-IV 02 Dec 18:35:39 18:40:49 48° 260° (W) 18:46:02 437.490
CUTE 1.7 + AOD 2 02 Dec 18:37:17 18:40:03 17° 69° (ENE) 18:42:49 437.475
NOAA 15 02 Dec 18:47:20 18:51:57 31° 262° (W) 18:56:35 137.62
DOVE 4 02 Dec 18:47:52 18:52:13 43° 262° (W) 18:56:52 437.250
CANX-2 02 Dec 18:53:22 18:57:05 31° 72° (ENE) 19:00:49 2200.000
CINEMA 3 02 Dec 18:56:58 19:01:40 55° 75° (ENE) 19:06:32 145.822/145.860
HO-68 02 Dec 19:19:43 19:26:50 73° 72° (ENE) 19:33:59 435.675
AAUSAT CUBESAT 2 02 Dec 19:19:44 19:22:27 17° 69° (ENE) 19:25:11 437.432
SEEDS 02 Dec 19:26:41 19:30:39 44° 74° (ENE) 19:34:37 437.485
NOAA 18 02 Dec 19:28:20 19:32:43 24° 264° (W) 19:37:10 137.9125
RS-15 02 Dec 19:36:49 19:47:00 33° 257° (WSW) 19:56:55 29.354- 29.394
STRAND 1 02 Dec 19:37:09 19:42:11 58° 101° (E) 19:47:10 437.568
AIST 1 02 Dec 19:39:45 19:42:36 18° 88° (E) 19:45:29
CUBEBUG 2 02 Dec 19:41:20 19:45:46 41° 73° (ENE) 19:50:14 437.445
COMPASS 1 02 Dec 19:44:33 19:48:30 46° 75° (ENE) 19:52:28 437.405
ZACube-1 02 Dec 19:47:17 19:50:21 18° 68° (ENE) 19:53:23 437.345
FUNcube-1 02 Dec 19:56:53 20:00:17 21° 69° (ENE) 20:03:38 145.935
SRMSAT 02 Dec 19:58:47 20:01:09 12° 194° (SSW) 20:03:31 437.500
Cosmos 2491 02 Dec 20:03:27 20:11:26 42° 272° (W) 20:19:25 435.465 / 435.565
Cosmos 2504 02 Dec 20:07:54 20:15:38 50° 89° (E) 20:23:52 435.465 / 435.565
CUTE 1.7 + AOD 2 02 Dec 20:11:50 20:15:37 32° 263° (W) 20:19:24 437.475
YUBILEINY 02 Dec 20:26:46 20:35:20 62° 279° (W) 20:43:59 435.215
CANX-2 02 Dec 20:30:10 20:32:57 17° 266° (W) 20:35:45 2200.000
Oscar 11 02 Dec 20:31:42 20:35:51 48° 74° (ENE) 20:40:00 145.826/435.025
UWE-3 02 Dec 20:31:44 20:36:24 85° 257° (WSW) 20:41:05 435.000/436.395/437.385
PCSat 02 Dec 20:34:08 20:36:26 13° 47° (NE) 20:38:43 145.827
PRISM 02 Dec 20:34:49 20:36:28 12° 93° (E) 20:38:07 437.425
CINEMA 3 02 Dec 20:36:51 20:39:06 13° 269° (W) 20:41:24 145.822/145.860
DELFI C3 02 Dec 20:51:09 20:54:22 25° 72° (ENE) 20:57:36 145.870
AAUSAT CUBESAT 2 02 Dec 20:54:03 20:57:40 29° 263° (W) 21:01:17 437.432
SEEDS 02 Dec 21:04:59 21:06:31 12° 268° (W) 21:08:03 437.485
SO-50 02 Dec 21:06:40 21:11:28 85° 118° (ESE) 21:16:13 436.795
HO-68 02 Dec 21:10:44 21:15:05 17° 267° (W) 21:19:27 435.675
AIST 1 02 Dec 21:16:12 21:19:55 29° 282° (WNW) 21:23:41
STRAND 1 02 Dec 21:18:07 21:20:49 14° 296° (WNW) 21:23:30 437.568
CUBEBUG 2 02 Dec 21:19:25 21:22:30 17° 267° (W) 21:25:34 437.445
ZACube-1 02 Dec 21:22:03 21:26:18 37° 262° (W) 21:30:32 437.345
COMPASS 1 02 Dec 21:23:15 21:24:15 11° 268° (W) 21:25:17 437.405
FUNcube-1 02 Dec 21:32:13 21:36:16 31° 263° (W) 21:40:18 145.935
UNISAT 6 02 Dec 21:33:52 21:35:37 12° 92° (E) 21:37:20 437.425
CUSAT 1 02 Dec 21:34:25 21:37:58 62° 262° (W) 21:42:36 437.405
DANDE 02 Dec 21:44:16 21:46:37 24° 80° (E) 21:49:19 436.750
HUMSAT D 02 Dec 21:47:21 21:51:34 66° 75° (ENE) 21:55:44 437.325/437.525
Cosmos 2504 02 Dec 22:02:16 22:09:15 30° 288° (WNW) 22:16:40 435.465 / 435.565
ESTCUBE 1 02 Dec 22:02:48 22:04:44 13° 66° (ENE) 22:06:41 437.505/2401.250
TIGRISAT 02 Dec 22:03:24 22:07:05 26° 96° (E) 22:10:41 435.000
ANTELSAT 02 Dec 22:03:46 22:07:34 28° 96° (E) 22:11:16 437.575/2403.000
PRISM 02 Dec 22:07:59 22:11:55 43° 287° (WNW) 22:15:51 437.425
Oscar 11 02 Dec 22:10:40 22:12:12 12° 268° (W) 22:13:41 145.826/435.025
PCSat 02 Dec 22:15:06 22:20:33 89° 245° (WSW) 22:25:58 145.827
DELFI C3 02 Dec 22:26:23 22:29:07 18° 265° (W) 22:31:53 145.870
JAS-2 02 Dec 22:42:47 22:45:14 13° 93° (E) 22:47:43 435.910
SO-50 02 Dec 22:50:48 22:52:31 12° 315° (NW) 22:54:14 436.795
CUBEBUG 1 02 Dec 22:58:59 23:02:49 32° 72° (ENE) 23:06:43 437.445
VELOX 1 02 Dec 23:00:39 23:04:05 23° 69° (ENE) 23:07:32 145.980
QB50P2 02 Dec 23:01:33 23:03:26 13° 93° (E) 23:05:20 145.880/145.840
POLYITAN 1 02 Dec 23:02:25 23:04:04 12° 93° (E) 23:05:42 437.675
UNISAT 6 02 Dec 23:08:20 23:12:34 46° 286° (WNW) 23:16:42 437.425
QB50P1 02 Dec 23:15:35 23:18:28 18° 94° (E) 23:21:21 145.935-145.965
DUCHIFAT 1 02 Dec 23:22:37 23:25:33 18° 95° (E) 23:28:27 145.980
50 SAT 02 Dec 23:23:33 23:26:37 29° 73° (ENE) 23:29:41 437.505
DX 1 02 Dec 23:26:17 23:29:43 23° 69° (ENE) 23:33:09 434.975-435.025
POPSAT HIP 1 02 Dec 23:36:00 23:39:46 31° 97° (E) 23:43:30 437.405
ESTCUBE 1 02 Dec 23:36:43 23:41:03 51° 260° (W) 23:45:25 437.505/2401.250
TIGRISAT 02 Dec 23:40:12 23:43:36 22° 291° (WNW) 23:46:57 435.000
UKube-1 02 Dec 23:40:37 23:44:07 25° 70° (ENE) 23:47:38 .
ANTELSAT 02 Dec 23:40:47 23:44:04 21° 291° (WNW) 23:47:17 437.575/2403.000
AISAT 02 Dec 23:58:40 00:03:02 69° 258° (WSW) 00:07:29 437.250
SPROUT 03 Dec 00:00:07 00:04:24 71° 76° (ENE) 00:08:42 437.525
TISAT 1 03 Dec 00:03:10 00:04:02 11° 65° (ENE) 00:04:55 437.305
JAS-2 03 Dec 00:25:34 00:30:38 55° 286° (WNW) 00:35:53 435.910
NANOSAT C BR1 03 Dec 00:33:03 00:37:10 52° 285° (WNW) 00:41:15 145.865
BUGSAT 1 03 Dec 00:33:39 00:37:43 47° 100° (E) 00:41:42 437.445
QB50P2 03 Dec 00:35:23 00:39:24 42° 287° (WNW) 00:43:23 145.880/145.840
ISS 03 Dec 00:35:58 00:39:09 43° 39° (NE) 00:42:19 145.825
POLYITAN 1 03 Dec 00:36:00 00:40:03 44° 286° (WNW) 00:44:03 437.675
CUBEBUG 1 03 Dec 00:36:11 00:39:08 18° 266° (W) 00:42:07 437.445
VELOX 1 03 Dec 00:36:41 00:40:22 26° 263° (W) 00:44:06 145.980
QB50P1 03 Dec 00:50:32 00:54:15 30° 288° (WNW) 00:57:56 145.935-145.965
DUCHIFAT 1 03 Dec 00:57:33 01:01:13 29° 289° (WNW) 01:04:51 145.980
50 SAT 03 Dec 00:58:34 00:59:58 12° 266° (W) 01:01:21 437.505
DX 1 03 Dec 01:02:11 01:05:45 25° 263° (W) 01:09:21 434.975-435.025
GONETS M04 03 Dec 01:03:28 01:11:55 57° 91° (E) 01:20:21
PHONESAT 2.4 03 Dec 01:07:36 01:09:47 22° 147° (SSE) 01:11:58 2401.200-2431.200
Cosmos 2499 03 Dec 01:10:37 01:18:52 69° 92° (E) 01:27:37 435.465 / 435.565
POPSAT HIP 1 03 Dec 01:12:23 01:15:17 18° 291° (WNW) 01:18:10 437.405
Gurwin Techsat 1B 03 Dec 01:12:26 01:14:45 13° 92° (E) 01:17:03 435.225
UKube-1 03 Dec 01:16:38 01:20:03 23° 264° (W) 01:23:29 .
SWISSCUBE 03 Dec 01:22:38 01:26:06 20° 68° (ENE) 01:29:35 437.505
BEESAT 03 Dec 01:27:05 01:30:32 20° 68° (ENE) 01:34:01 436.000
TISAT 1 03 Dec 01:34:59 01:39:08 56° 259° (W) 01:43:19 437.305
AUBIESAT-1 03 Dec 01:42:24 01:46:08 41° 68° (ENE) 01:50:09 437.475
Oscar 19 03 Dec 01:42:43 01:47:50 57° 101° (E) 01:52:56 437.125/150
ITUPSAT 1 03 Dec 01:51:17 01:55:38 36° 71° (ENE) 01:59:59 437.325
M-CUBED/EXP-1 PRIME 03 Dec 01:51:23 01:55:14 69° 71° (ENE) 01:59:27 437.505
BUGSAT 1 03 Dec 02:10:58 02:12:35 12° 294° (WNW) 02:14:13 437.445
ISS 03 Dec 02:13:33 02:15:21 14° 233° (SW) 02:17:08 145.825
O/OREOS (USA 219) 03 Dec 02:15:39 02:19:07 21° 62° (ENE) 02:22:32 437.305
PHONESAT 2.4 03 Dec 02:42:21 02:44:56 46° 342° (NNW) 02:47:31 2401.200-2431.200
AO-85 03 Dec 02:49:45 02:54:47 72° 117° (ESE) 02:59:29 145.980
Gurwin Techsat 1B 03 Dec 02:49:48 02:55:04 64° 286° (WNW) 03:00:18 435.225
AO-7 03 Dec 02:58:20 03:04:49 24° 96° (E) 03:11:14 29.400- 29.500
SWISSCUBE 03 Dec 02:59:16 03:03:37 35° 262° (W) 03:07:59 437.505
GONETS M04 03 Dec 03:02:02 03:09:05 27° 288° (WNW) 03:16:11
MOZHAYETS 4 03 Dec 03:03:12 03:07:36 46° 74° (ENE) 03:11:59
BEESAT 03 Dec 03:03:41 03:08:02 35° 261° (W) 03:12:25 436.000
Cosmos 2499 03 Dec 03:06:25 03:12:43 23° 291° (WNW) 03:19:16 435.465 / 435.565
AUBIESAT-1 03 Dec 03:18:59 03:20:47 13° 264° (W) 03:22:39 437.475
Oscar 19 03 Dec 03:23:44 03:26:37 15° 296° (WNW) 03:29:31 437.125/150
ITUPSAT 1 03 Dec 03:30:03 03:33:30 20° 265° (W) 03:36:57 437.325
ITAMSAT 1 03 Dec 03:42:31 03:47:43 90° 302° (WNW) 03:52:53 435.822/435.867
O/OREOS (USA 219) 03 Dec 03:54:38 03:58:28 28° 257° (WSW) 04:02:17 437.305
KKS-1 03 Dec 03:58:29 04:02:57 84° 75° (ENE) 04:07:27 437.445
STARS 03 Dec 04:14:14 04:18:32 55° 74° (ENE) 04:22:53 437.465
PHONESAT 2.4 03 Dec 04:18:25 04:20:34 21° 358° (N) 04:22:43 2401.200-2431.200
AO-85 03 Dec 04:33:11 04:35:35 14° 311° (NW) 04:37:55 145.980
CUBESAT XI-V 03 Dec 04:33:25 04:37:56 60° 75° (ENE) 04:42:27 437.345
MOZHAYETS 4 03 Dec 04:42:37 04:44:57 14° 267° (W) 04:47:16
AO-7 03 Dec 04:49:44 04:57:58 64° 292° (WNW) 05:06:11 29.400- 29.500
BRITE-PL 03 Dec 04:51:16 04:55:48 26° 96° (E) 05:00:27 437.365/2234.400
HORYU 2 03 Dec 05:08:20 05:11:56 24° 96° (E) 05:15:30 437.375
NOAA 15 03 Dec 05:28:06 05:30:20 13° 92° (E) 05:32:33 137.62
SO-50 03 Dec 05:41:57 05:45:51 28° 53° (NE) 05:49:41 436.795
PHONESAT 2.4 03 Dec 05:53:48 05:56:16 32° 14° (NNE) 05:58:42 2401.200-2431.200
STARS 03 Dec 05:54:13 05:55:10 11° 268° (W) 05:56:06 437.465
BEESAT 3 03 Dec 06:01:22 06:05:15 86° 297° (WNW) 06:09:12 437.485
Cosmos 2504 03 Dec 06:07:15 06:11:49 15° 65° (ENE) 06:16:15 435.465 / 435.565
LilacSat-2 03 Dec 06:09:26 06:12:47 30° 97° (E) 06:16:06 437.200
NOAA 18 03 Dec 06:13:14 06:17:21 21° 95° (E) 06:21:26 137.9125
CUBESAT XI-V 03 Dec 06:14:59 06:15:37 10° 269° (W) 06:16:17 437.345
GOMX 1 03 Dec 06:22:00 06:27:30 87° 102° (ESE) 06:33:00 467.674
BEESAT 2 03 Dec 06:23:15 06:27:08 71° 117° (ESE) 06:31:05 435.950
BRITE-PL 03 Dec 06:29:19 06:34:12 36° 288° (WNW) 06:39:15 437.365/2234.400
CUTE-I 03 Dec 06:31:30 06:36:43 53° 101° (E) 06:41:51 437.470
YUBILEINY 03 Dec 06:41:09 06:49:49 58° 80° (E) 06:58:27 435.215
HORYU 2 03 Dec 06:44:44 06:48:22 25° 290° (WNW) 06:51:58 437.375
AO-7 03 Dec 06:46:28 06:49:05 12° 310° (NW) 06:51:43 29.400- 29.500
STRAND 1 03 Dec 06:49:22 06:54:24 58° 74° (ENE) 06:59:27 437.568
DOVE 4 03 Dec 06:49:40 06:54:59 70° 101° (E) 07:00:08 437.250
HO-68 03 Dec 06:53:34 06:57:39 16° 92° (E) 07:01:43 435.675
Cubesat XI-IV 03 Dec 06:56:15 07:01:37 89° 284° (WNW) 07:06:56 437.490
CINEMA 3 03 Dec 06:56:38 06:59:53 18° 93° (E) 07:03:01 145.822/145.860
Cosmos 2491 03 Dec 07:03:07 07:11:23 47° 89° (E) 07:19:37 435.465 / 435.565
NOAA 15 03 Dec 07:05:14 07:10:27 64° 286° (WNW) 07:15:40 137.62
SO-50 03 Dec 07:22:30 07:26:10 25° 249° (WSW) 07:29:47 436.795
AIST 1 03 Dec 07:26:05 07:30:19 45° 80° (E) 07:34:32
PHONESAT 2.4 03 Dec 07:29:02 07:31:34 40° 209° (SSW) 07:34:06 2401.200-2431.200
RS-15 03 Dec 07:40:49 07:52:04 60° 111° (ESE) 08:03:53 29.354- 29.394
LilacSat-2 03 Dec 07:44:43 07:46:47 14° 291° (WNW) 07:48:50 437.200
NOAA 18 03 Dec 07:52:55 07:58:07 43° 290° (WNW) 08:03:17 137.9125
Cosmos 2504 03 Dec 07:57:40 08:06:32 85° 84° (E) 08:14:51 435.465 / 435.565
CUTE 1.7 + AOD 2 03 Dec 07:59:36 08:03:43 52° 100° (E) 08:07:49 437.475
GOMX 1 03 Dec 08:03:21 08:04:47 11° 297° (WNW) 08:06:12 467.674
CUTE-I 03 Dec 08:12:56 08:16:16 17° 295° (WNW) 08:19:35 437.470
CANX-2 03 Dec 08:16:50 08:21:03 78° 284° (WNW) 08:25:15 2200.000
AIST 2 03 Dec 08:22:06 08:25:38 29° 112° (ESE) 08:29:12 435.215
Oscar 11 03 Dec 08:24:38 08:26:00 11° 92° (E) 08:27:22 145.826/435.025
UWE-3 03 Dec 08:25:51 08:29:20 24° 95° (E) 08:32:44 435.000/436.395/437.385
DOVE 4 03 Dec 08:29:36 08:31:57 13° 296° (WNW) 08:34:17 437.250
STRAND 1 03 Dec 08:31:24 08:33:52 13° 267° (W) 08:36:22 437.568
CINEMA 3 03 Dec 08:32:39 08:37:08 38° 288° (WNW) 08:41:24 145.822/145.860
HO-68 03 Dec 08:38:44 08:45:57 78° 288° (WNW) 08:53:08 435.675
AAUSAT CUBESAT 2 03 Dec 08:39:00 08:43:02 50° 100° (E) 08:47:03 437.432
YUBILEINY 03 Dec 08:39:04 08:45:57 26° 277° (W) 08:52:51 435.215
SEEDS 03 Dec 08:49:13 08:53:18 55° 285° (WNW) 08:57:24 437.485
PRISM 03 Dec 08:53:18 08:57:20 79° 77° (ENE) 09:01:25 437.425
TIGRISAT 03 Dec 08:59:01 09:02:05 17° 68° (ENE) 09:05:08 435.000
ANTELSAT 03 Dec 08:59:25 09:02:39 19° 68° (ENE) 09:05:53 437.575/2403.000
Cosmos 2491 03 Dec 09:00:40 09:08:18 33° 286° (WNW) 09:16:00 435.465 / 435.565
AIST 1 03 Dec 09:05:46 09:07:25 12° 274° (W) 09:09:05
COMPASS 1 03 Dec 09:05:54 09:09:56 53° 285° (WNW) 09:13:59 437.405
CUBEBUG 2 03 Dec 09:12:16 09:16:36 54° 285° (WNW) 09:20:45 437.445
ZACube-1 03 Dec 09:13:46 09:17:56 53° 100° (E) 09:21:59 437.345
FUNcube-1 03 Dec 09:23:20 09:27:32 64° 100° (E) 09:31:38 145.935
HUMSAT D 03 Dec 09:35:58 09:37:51 13° 93° (E) 09:39:44 437.325/437.525
CUTE 1.7 + AOD 2 03 Dec 09:37:59 09:39:03 11° 294° (WNW) 09:40:06 437.475
Cosmos 2504 03 Dec 09:53:47 09:58:35 16° 282° (WNW) 10:03:18 435.465 / 435.565
RS-15 03 Dec 09:54:10 10:05:01 41° 313° (NW) 10:16:23 29.354- 29.394
Oscar 11 03 Dec 09:58:13 10:02:21 48° 286° (WNW) 10:06:29 145.826/435.025
AIST 2 03 Dec 10:00:55 10:04:05 21° 308° (NW) 10:07:18 435.215
UWE-3 03 Dec 10:02:15 10:05:40 23° 290° (WNW) 10:08:59 435.000/436.395/437.385
UNISAT 6 03 Dec 10:02:37 10:07:19 86° 261° (W) 10:12:01 437.425
DELFI C3 03 Dec 10:05:34 10:09:32 68° 102° (ESE) 10:13:29 145.870
AAUSAT CUBESAT 2 03 Dec 10:16:55 10:18:01 11° 294° (WNW) 10:19:07 437.432
POPSAT HIP 1 03 Dec 10:26:00 10:28:35 16° 68° (ENE) 10:31:09 437.405
HO-68 03 Dec 10:29:41 10:32:30 13° 304° (NW) 10:35:18 435.675
JAS-2 03 Dec 10:33:13 10:39:30 42° 72° (ENE) 10:45:07 435.910
TIGRISAT 03 Dec 10:33:58 10:38:24 41° 262° (W) 10:42:50 435.000
ANTELSAT 03 Dec 10:34:40 10:39:02 38° 262° (W) 10:43:24 437.575/2403.000
CUSAT 1 03 Dec 10:34:55 10:38:20 33° 278° (W) 10:41:09 437.405
DANDE 03 Dec 10:47:36 10:53:08 67° 98° (E) 10:57:15 436.750
ZACube-1 03 Dec 10:52:44 10:53:39 11° 295° (WNW) 10:54:37 437.345
Cosmos 2499 03 Dec 11:08:17 11:14:15 20° 68° (ENE) 11:19:55 435.465 / 435.565
HUMSAT D 03 Dec 11:09:49 11:13:35 37° 286° (WNW) 11:17:21 437.325/437.525
PCSat 03 Dec 11:11:38 11:15:25 20° 105° (ESE) 11:19:12 145.827
GONETS M04 03 Dec 11:19:06 11:25:37 23° 70° (ENE) 11:32:05
BUGSAT 1 03 Dec 11:20:19 11:23:30 21° 69° (ENE) 11:26:41 437.445
NANOSAT C BR1 03 Dec 11:21:01 11:25:14 68° 77° (ENE) 11:29:30 145.865
QB50P2 03 Dec 11:23:44 11:28:00 86° 81° (E) 11:32:19 145.880/145.840
POLYITAN 1 03 Dec 11:24:21 11:28:39 82° 74° (ENE) 11:32:57 437.675
AO-85 03 Dec 11:25:49 11:28:41 19° 52° (NE) 11:31:31 145.980
ESTCUBE 1 03 Dec 11:32:32 11:36:49 42° 99° (E) 11:41:05 437.505/2401.250
QB50P1 03 Dec 11:38:29 11:42:44 67° 259° (W) 11:47:00 145.935-145.965
DUCHIFAT 1 03 Dec 11:44:53 11:49:06 66° 258° (WSW) 11:53:21 145.980
SPROUT 03 Dec 11:50:44 11:53:21 16° 94° (E) 11:55:57 437.525
AISAT 03 Dec 11:52:33 11:56:26 28° 97° (E) 12:00:18 437.250
POPSAT HIP 1 03 Dec 12:00:02 12:04:00 37° 262° (W) 12:08:00 437.405
